Home > Weather > Itumbiara > Past weeks

Flag for Brazil Past Weather in Itumbiara, Goiás, Brazil — Yesterday and Last 2 Weeks

Now
66 °F

Sunny.


Feels Like: 66 °F
Forecast: 69 / 85 °F
Wind: No wind

Location: Goiania Aeroporto

Current Time: Jun 25, 2016 at 7:35:22 AM

Latest Report: Jun 25, 2016 at 7:00 AM


Visibility: 10 mi

Pressure: 30.18 "Hg

Humidity: 56%

Dew Point: 50 °F

Location of ItumbiaraLocation

Past Weather in Itumbiara — Graph

°F

Itumbiara Temperature Yesterday

Maximum temperature yesterday: 86 °F (at 2:00 PM)
Minimum temperature yesterday: 59 °F (at 7:00 AM)
Average temperature yesterday: 73 °F

High & Low Weather Summary for the Past Weeks

 TemperatureHumidityPressure
High88 °F (Jun 21, 2:00 PM)94% (Jun 10, 6:00 AM)30.33 "Hg (Jun 10, 6:00 AM)
Low50 °F (Jun 13, 7:00 AM)15% (Jun 19, 2:00 PM)30.07 "Hg (Jun 20, 4:00 PM)
Average71 °F51%30.17 "Hg
* Reported Jun 10 6:00 AM — Jun 25 6:00 AM, Itumbiara, Weather by CustomWeather, © 2016

Note: Actual official high and low records may vary slightly from our data, if they occured in-between our weather recording intervals... More about our weather records

Advertising

Itumbiara Weather History for the Previous 24 Hours

Scroll right to see more
 ConditionsComfort  
Time TempWeatherWind HumidityBarometerVisibility
6:00 AM
Sat, Jun 25
64 °FClear.2 mph60%30.15 "Hg10 mi
5:00 AM66 °FClear.1 mph56%30.15 "Hg10 mi
4:00 AM66 °FClear.5 mph56%30.15 "Hg10 mi
3:00 AM68 °FClear.7 mph53%30.15 "Hg10 mi
2:00 AM68 °FClear.5 mph53%30.15 "Hg10 mi
1:00 AM68 °FClear.No wind53%30.18 "Hg10 mi
12:00 AM68 °FClear.No wind53%30.18 "Hg10 mi
11:00 PM
Fri, Jun 24
72 °FClear.15 mph44%30.15 "Hg10 mi
10:00 PM68 °FClear.8 mph53%30.15 "Hg10 mi
9:00 PM70 °FClear.8 mph50%30.15 "Hg10 mi
8:00 PM73 °FClear.8 mph41%30.12 "Hg10 mi
7:00 PM79 °FClear.7 mph32%30.09 "Hg10 mi
6:00 PM82 °FPassing clouds.7 mph28%30.09 "HgN/A
5:00 PM84 °FPassing clouds.9 mph25%30.09 "HgN/A
4:00 PM86 °FPassing clouds.10 mph24%30.09 "HgN/A
3:00 PM86 °FScattered clouds.7 mph24%30.09 "HgN/A
2:00 PM86 °FPassing clouds.8 mph24%30.12 "HgN/A
1:00 PM84 °FPassing clouds.10 mph27%30.12 "HgN/A
12:00 PM84 °FSunny.10 mph27%30.15 "Hg10 mi
11:00 AM82 °FSunny.10 mph30%30.18 "Hg10 mi
10:00 AM73 °FSunny.3 mph47%30.18 "Hg10 mi
9:00 AM68 °FSunny.8 mph56%30.18 "Hg10 mi
8:00 AM64 °FSunny.No wind68%30.18 "Hg10 mi
7:00 AM59 °FSunny.No wind82%30.15 "Hg10 mi
Weather by CustomWeather, © 2016

See weather overviewHow to use our weather pages